Location: �terpigny
(49.8910°N, 2.9249°E)
Time: 10:21:33
(UTC+00:00)

Cosmos 1953 Rocket - Pass Details

Date: 24 October 2021
Orbit: 603 x 635 km, 82.5° (Epoch: 30 November)

Event Time Altitude Azimuth Distance (km) Brightness Sun altitude
Rises 18:19:22 0° 357° (N) 2,947 7.1 -16.7°
Reaches altitude 10° 18:21:52 10° 8° (N) 2,032 6.1 -17.1°
Enters shadow 18:25:24 30° 59° (ENE) 1,149 4.5 -17.7°
